Simultaneous Nadir Overpasses (SNOs) Predictions

Prediction of SNOs between GOES-17 and TERRA Satellite Orbit:

Table of predicted SNOs for the next 14.0 days since TLE Epoch: 7/1/2022
Index Date Time (GOES-17) GOES-17 Lat,Lon TERRA Lat,Lon Distance(km) Time Diff (sec)
1 07/02/2022 19:25:25 0.02,-137.20 0.03,-137.13 8.31 80
2 07/04/2022 19:15:51 0.01,-137.20 -0.64,-134.18 343.92 80
3 07/05/2022 07:34:33 -0.01,-137.20 -0.47,-139.37 246.70 80
4 07/07/2022 07:24:57 -0.01,-137.19 0.15,-136.41 88.91 80
5 07/07/2022 19:43:32 0.00,-137.19 0.91,-141.57 498.12 80
6 07/09/2022 07:12:41 -0.01,-137.18 0.77,-133.45 423.76 80
7 07/09/2022 19:31:16 0.01,-137.17 0.29,-138.61 163.53 80
8 07/11/2022 19:21:39 0.02,-137.14 -0.27,-135.64 170.07 80
9 07/12/2022 07:40:22 -0.02,-137.13 -0.83,-140.83 421.22 80
10 07/14/2022 07:28:06 -0.02,-137.09 -0.20,-137.87 88.66 80
